Regional Weather Roundup
Issued by NWS Charleston, WV

Home | Current Version | Previous Version | Graphics & Text | Print | Product List | Glossary On
Versions: 1 2 3 4 5 6 7 8 9 10 11 12 13 14 15 16 17 18 19 20 21 22 23 24 25 26 27 28 29 30 31 32 33 34 35 36 37 38 39 40 41 42 43 44 45 46 47 48 49 50
000
ASUS41 KRLX 011810
RWRRLX
West Virginia Regional Weather Roundup
National Weather Service Charleston WV
200 PM EDT MON JUN 01 2015

Note: "fair" indicates few or no clouds below 12,000 feet with no
significant weather and/or obstructions to visibility.

WVZ003-011900-
Northern Panhandle of West Virginia

CITY           SKY/WX    TMP DP  RH WIND       PRES   REMARKS
WHEELING       CLOUDY    54  47  77 N6        30.14F
$$

WVZ009-011900-
Northwest West Virginia

CITY           SKY/WX    TMP DP  RH WIND       PRES   REMARKS
PARKERSBURG    CLOUDY    61  51  70 CALM      30.14F
$$

WVZ006-011900-
Western West Virginia

CITY           SKY/WX    TMP DP  RH WIND       PRES   REMARKS
HUNTINGTON     CLOUDY    63  55  75 N8        30.08F
$$

WVZ015-011900-
West Central West Virginia

CITY           SKY/WX    TMP DP  RH WIND       PRES   REMARKS
CHARLESTON     CLOUDY    69  59  70 CALM      30.07F
$$

WVZ022-031-011900-
North Central West Virginia

CITY           SKY/WX    TMP DP  RH WIND       PRES   REMARKS
CLARKSBURG     CLOUDY    59  56  89 N5        30.11S
MORGANTOWN     CLOUDY    56  51  84 N6        30.13F
$$

WVZ025-035-042-045-011900-
Southern West Virginia

CITY           SKY/WX    TMP DP  RH WIND       PRES   REMARKS
BECKLEY        CLOUDY    75  58  55 SW6       30.08F
LOGAN          PTSUNNY   73  66  78 VRB3      30.03F
BLUEFIELD      CLOUDY    74  61  63 VRB3      30.10F
LEWISBURG      PTSUNNY   78  61  54 CALM      30.08F
$$

WVZ047-011900-
Northern Mountains of West Virginia

CITY           SKY/WX    TMP DP  RH WIND       PRES   REMARKS
ELKINS         MOSUNNY   73  63  70 NW10      30.07F
$$

WVZ052-011900-
Eastern Panhandle of West Virginia

CITY           SKY/WX    TMP DP  RH WIND       PRES   REMARKS
MARTINSBURG    PTSUNNY   78  68  71 SE8       30.01F
PETERSBURG     LGT RAIN  77  66  67 SE3       30.02F
$$


USA.gov is the U.S. government's official web portal to all federal, state and local government web resources and services.